Regional Weather Roundup
Issued by NWS Kansas City/Pleasant Hill, MO

Home | Current Version | Previous Version | Text Only | Print | Product List | Glossary On
Versions: 1 2 3 4 5 6 7 8 9 10 11 12 13 14 15 16 17 18 19 20 21 22 23 24 25 26 27 28 29 30 31 32 33 34 35 36 37 38 39 40 41 42 43 44 45 46 47 48 49 50
532
ASUS43 KEAX 301610
RWREAX

WEATHER ROUNDUP FOR EASTERN KANSAS AND NORTHWEST MISSOURI
NATIONAL WEATHER SERVICE KANSAS CITY/PLEASANT HILL MO
1100 AM CDT THU MAR 30 2017

KSZ040-057-103>105-MOZ028-029-037-043-301700-
...KANSAS CITY METROPOLITAN AREA...

CITY           SKY/WX    TMP DP  RH WIND       PRES   REMARKS
K.C. INTL      CLOUDY    50  46  86 N6        29.58R
K.C. DOWNTOWN  CLOUDY    50  47  89 CALM      29.57F
LEES SUMMIT    CLOUDY    49  48  97 S6        29.58S FOG
OLATHE - IXD   CLOUDY    50  47  89 CALM      29.57S
OLATHE - OJC   LGT RAIN  47  47 100 S3        29.57S FOG
LAWRENCE       CLOUDY    50  48  93 N5        29.58S

$$

MOZ001>008-011>017-020>025-030>033-038>040-044>046-053-054-301700-
...NORTHERN AND CENTRAL MISSOURI...

CITY           SKY/WX    TMP DP  RH WIND       PRES   REMARKS
ST. JOSEPH     CLOUDY    47  46  97 N13       29.61R
MOSBY          CLOUDY    50  45  81 CALM      29.59R
WARRENSBURG    CLOUDY    48  45  87 S10       29.59S
WHITEMAN AFB   CLOUDY    50  50 100 SW12      29.57S
CLINTON        CLOUDY    50  45  81 S10       29.59S
SEDALIA        CLOUDY    50  44  80 SW14      29.60R
WARSAW         NOT AVBL
CHILLICOTHE      N/A     50  49  96 N5        29.59R
KIRKSVILLE     FOG       50  49  96 NE8       29.59R VSB 3/4

$$

MOZ041-047>049-056>058-063>065-088>090-097-301700-
...EASTERN AND SOUTHERN MISSOURI...

CITY           SKY/WX    TMP DP  RH WIND       PRES   REMARKS
ST. LOUIS INTL MOSUNNY   70  60  70 S12       29.54F
SPIRIT OF STL  PTSUNNY   68  61  78 S9        29.52F
COLUMBIA       LGT RAIN  50  47  89 SW14      29.59R
JEFFERSON CITY LGT RAIN  53  46  77 W8        29.60R
ROLLA          CLOUDY    51  50  96 W13       29.58R
OSAGE BEACH    CLOUDY    52  44  74 SW10      29.61R
SPRINGFIELD    CLOUDY    50  41  71 SW18      29.60S
BRANSON        CLOUDY    48  39  71 SW12G18   29.66R
JOPLIN         LGT RAIN  47  46  97 SW17G23   29.62R FOG
WEST PLAINS    CLOUDY    53  48  83 W13       29.62R

$$

IAZ060-094-KSZ022-034>040-054-083-096-NEZ052-066-093-301700-
...KANSAS...SOUTHEAST NEBRASKA AND IOWA...

CITY           SKY/WX    TMP DP  RH WIND       PRES   REMARKS
TOPEKA         CLOUDY    48  47  96 N21       29.60R
MANHATTAN      CLOUDY    44  41  89 N8        29.66R
EMPORIA        CLOUDY    46  45  96 N18G24    29.61R
CHANUTE        LGT RAIN  50  48  93 NW12      29.57R
WICHITA        CLOUDY    43  40  89 NW20G30   29.71R WCI  34
OMAHA          CLOUDY    43  38  82 N18       29.71S WCI  35
LINCOLN        CLOUDY    41  39  93 N20       29.73S WCI  32
FALLS CITY     CLOUDY    44  42  93 N15G23    29.64R
LAMONI         LGT RAIN  43  43 100 NE16      29.61R VSB 1
DES MOINES     DRIZZLE   44  42  93 NE18      29.66F FOG

$$





USA.gov is the U.S. government's official web portal to all federal, state and local government web resources and services.